Location: Harbor View
(36.2448°N, 86.5797°W)
Time: 08:35:54
(UTC+00:00)

Okean O Rocket - Pass Details

Date: 29 October 2020
Orbit: 623 x 644 km, 98.2° (Epoch: 04 December)

Event Time Altitude Azimuth Distance (km) Brightness Sun altitude
Rises 23:48:37 0° 185° (S) 2,907 5.2 -11.8°
Reaches altitude 10° 23:50:56 10° 194° (SSW) 2,001 4.5 -12.3°
Maximum altitude 23:54:58 36° 261° (W) 989 3.3 -13.1°
Drops below altitude 10° 23:59:00 10° 329° (NNW) 2,004 4.5 -13.9°
Sets 00:01:20 0° 338° (NNW) 2,913 5.2 -14.4°
